Location: Niedergestelen
(46.3129°N, 7.7822°E)
Time: 16:14:56
(UTC+00:00)

CRYOSAT 2 - Pass Details

Date: 01 December 2020
Orbit: 714 x 724 km, 92.0° (Epoch: 27 January)

Event Time Altitude Azimuth Distance (km) Brightness Sun altitude
Rises 16:21:40 0° 7° (N) 3,149 7.4 -6.5°
Reaches altitude 10° 16:24:00 10° 11° (N) 2,224 6.6 -6.9°
Maximum altitude 16:28:53 63° 92° (E) 810 4.4 -7.7°
Drops below altitude 10° 16:33:44 10° 174° (S) 2,210 7.1 -8.4°
Sets 16:36:02 0° 178° (S) 3,127 7.9 -8.8°
